SWA2419 KLAX-KSLC

Flight info

Callsign SWA2419
Flight time 1h 23m
Altitude 33000
Route ORCKA5 LAS Q70 BLIPP Q842 WINEN MLF PITTT2
Aircraft B38M/M-SDE1FGHILORVWXY/HB1

Departure

Time 2026-05-07 11:29
Airport Los Angeles International Airport (KLAX)

Arrival

Time 2026-05-07 12:52
Airport Salt Lake City International Airport (KSLC)
Time Latitude Longitude Altitude Speed Heading
2026-05-07 11:04 33.94096 -118.39767 95 ft 0 kts 83°
2026-05-07 11:19 33.94095 -118.39777 95 ft 2 kts 83°
2026-05-07 11:19 33.94095 -118.39806 95 ft 4 kts 112°
2026-05-07 11:19 33.94111 -118.39827 98 ft 4 kts 162°
2026-05-07 11:20 33.94125 -118.39830 97 ft 1 kts 173°
2026-05-07 11:20 33.94127 -118.39831 95 ft 0 kts 173°
2026-05-07 11:23 33.94123 -118.39830 99 ft 2 kts 173°
2026-05-07 11:23 33.94099 -118.39827 97 ft 6 kts 173°
2026-05-07 11:24 33.94031 -118.39826 97 ft 14 kts 178°
2026-05-07 11:24 33.93918 -118.39779 98 ft 21 kts 126°
2026-05-07 11:24 33.93921 -118.39576 97 ft 29 kts 83°
2026-05-07 11:24 33.93950 -118.39299 96 ft 34 kts 83°
2026-05-07 11:25 33.93977 -118.39029 96 ft 34 kts 83°
2026-05-07 11:25 33.94006 -118.38750 97 ft 22 kts 82°
2026-05-07 11:25 33.94026 -118.38561 98 ft 23 kts 84°
2026-05-07 11:25 33.94045 -118.38368 98 ft 24 kts 83°
2026-05-07 11:26 33.94042 -118.38342 98 ft 0 kts 124°
2026-05-07 11:26 33.94041 -118.38340 98 ft 2 kts 131°
2026-05-07 11:26 33.93999 -118.38327 102 ft 10 kts 171°
2026-05-07 11:27 33.93954 -118.38323 102 ft 1 kts 200°
2026-05-07 11:27 33.93954 -118.38324 101 ft 0 kts 218°
2026-05-07 11:27 33.93951 -118.38343 102 ft 4 kts 262°
2026-05-07 11:27 33.93945 -118.38398 101 ft 8 kts 262°
2026-05-07 11:28 33.93926 -118.38586 102 ft 54 kts 263°
2026-05-07 11:28 33.93850 -118.39336 97 ft 123 kts 263°
2026-05-07 11:28 33.93721 -118.40584 129 ft 173 kts 263°
2026-05-07 11:28 33.93544 -118.42057 719 ft 183 kts 262°
2026-05-07 11:29 33.93383 -118.43587 1338 ft 196 kts 263°
2026-05-07 11:29 33.93274 -118.45345 1774 ft 219 kts 276°
2026-05-07 11:29 33.93925 -118.47057 2288 ft 240 kts 316°
2026-05-07 11:29 33.95409 -118.47909 3155 ft 239 kts 355°
2026-05-07 11:30 33.97073 -118.47507 3831 ft 256 kts 30°
2026-05-07 11:30 33.98297 -118.45934 4504 ft 269 kts 65°
2026-05-07 11:30 33.98651 -118.43728 5468 ft 272 kts 83°
2026-05-07 11:30 33.98933 -118.41436 6261 ft 278 kts 78°
2026-05-07 11:31 33.99289 -118.39147 7209 ft 277 kts 78°
2026-05-07 11:31 33.99663 -118.36867 8135 ft 277 kts 78°
2026-05-07 11:31 34.00048 -118.34590 9086 ft 277 kts 78°
2026-05-07 11:31 34.00441 -118.32307 10029 ft 278 kts 78°
2026-05-07 11:32 34.02049 -118.27903 10925 ft 311 kts 56°
2026-05-07 11:32 34.03296 -118.25674 11249 ft 329 kts 56°
2026-05-07 11:32 34.04610 -118.23334 11707 ft 342 kts 56°
2026-05-07 11:33 34.05956 -118.20949 12463 ft 343 kts 56°
2026-05-07 11:33 34.07294 -118.18582 13186 ft 347 kts 56°
2026-05-07 11:33 34.08664 -118.16158 13920 ft 351 kts 56°
2026-05-07 11:33 34.10050 -118.13708 14579 ft 354 kts 56°
2026-05-07 11:34 34.11450 -118.11229 15222 ft 358 kts 56°
2026-05-07 11:34 34.12841 -118.08764 15879 ft 361 kts 55°
2026-05-07 11:34 34.14265 -118.06240 16527 ft 365 kts 55°
2026-05-07 11:34 34.15698 -118.03697 17155 ft 368 kts 54°
2026-05-07 11:35 34.17151 -118.01116 17766 ft 372 kts 54°
2026-05-07 11:35 34.18613 -117.98518 18356 ft 376 kts 54°
2026-05-07 11:35 34.20087 -117.95900 18852 ft 378 kts 54°
2026-05-07 11:35 34.21571 -117.93256 19369 ft 381 kts 54°
2026-05-07 11:36 34.23063 -117.90599 19921 ft 383 kts 54°
2026-05-07 11:36 34.24564 -117.87923 20419 ft 387 kts 54°
2026-05-07 11:36 34.26061 -117.85252 20918 ft 389 kts 54°
2026-05-07 11:36 34.27584 -117.82533 21413 ft 392 kts 54°
2026-05-07 11:37 34.29122 -117.79786 21893 ft 395 kts 54°
2026-05-07 11:37 34.30669 -117.77019 22438 ft 398 kts 54°
2026-05-07 11:37 34.32233 -117.74222 22916 ft 401 kts 54°
2026-05-07 11:37 34.33784 -117.71446 23411 ft 404 kts 54°
2026-05-07 11:38 34.35450 -117.68697 23827 ft 406 kts 46°
2026-05-07 11:38 34.37348 -117.66145 24224 ft 408 kts 47°
2026-05-07 11:38 34.39221 -117.63545 24640 ft 410 kts 47°
2026-05-07 11:38 34.41095 -117.60912 25046 ft 413 kts 47°
2026-05-07 11:39 34.42944 -117.58299 25427 ft 415 kts 48°
2026-05-07 11:39 34.44825 -117.55632 25800 ft 418 kts 48°
2026-05-07 11:39 34.46724 -117.52936 26253 ft 420 kts 48°
2026-05-07 11:39 34.48631 -117.50227 26646 ft 422 kts 48°
2026-05-07 11:40 34.50530 -117.47526 27015 ft 425 kts 48°
2026-05-07 11:40 34.52450 -117.44794 27437 ft 426 kts 48°
2026-05-07 11:40 34.54384 -117.42038 27804 ft 429 kts 48°
2026-05-07 11:40 34.56328 -117.39267 28157 ft 431 kts 48°
2026-05-07 11:41 34.58275 -117.36489 28512 ft 433 kts 48°
2026-05-07 11:41 34.60241 -117.33682 28857 ft 436 kts 48°
2026-05-07 11:41 34.62206 -117.30874 29190 ft 438 kts 48°
2026-05-07 11:41 34.64162 -117.28077 29515 ft 440 kts 48°
2026-05-07 11:42 34.66146 -117.25237 29850 ft 442 kts 48°
2026-05-07 11:42 34.68151 -117.22365 30156 ft 445 kts 48°
2026-05-07 11:42 34.70161 -117.19484 30424 ft 447 kts 48°
2026-05-07 11:42 34.72159 -117.16618 30670 ft 448 kts 47°
2026-05-07 11:43 34.74168 -117.13733 31059 ft 447 kts 47°
2026-05-07 11:43 34.76188 -117.10829 31439 ft 446 kts 47°
2026-05-07 11:43 34.78192 -117.07946 31823 ft 446 kts 47°
2026-05-07 11:43 34.80201 -117.05055 32192 ft 446 kts 47°
2026-05-07 11:44 34.82175 -117.02211 32550 ft 445 kts 47°
2026-05-07 11:44 34.84171 -116.99333 32928 ft 445 kts 47°
2026-05-07 11:44 34.86170 -116.96448 33083 ft 446 kts 47°
2026-05-07 11:45 34.90146 -116.90702 33082 ft 442 kts 47°
2026-05-07 11:45 34.94113 -116.84961 33090 ft 442 kts 47°
2026-05-07 11:46 34.98051 -116.79252 33072 ft 441 kts 47°
2026-05-07 11:46 35.02012 -116.73500 33053 ft 441 kts 47°
2026-05-07 11:47 35.05963 -116.67754 33052 ft 442 kts 47°
2026-05-07 11:47 35.09891 -116.62031 33041 ft 441 kts 47°
2026-05-07 11:48 35.13846 -116.56259 33029 ft 442 kts 47°
2026-05-07 11:48 35.17777 -116.50514 33054 ft 442 kts 47°
2026-05-07 11:49 35.21724 -116.44735 33060 ft 443 kts 47°
2026-05-07 11:49 35.25671 -116.38947 33039 ft 442 kts 47°
2026-05-07 11:50 35.29625 -116.33138 33035 ft 443 kts 47°
2026-05-07 11:50 35.33539 -116.27378 33021 ft 443 kts 47°
2026-05-07 11:51 35.37474 -116.21579 33014 ft 443 kts 47°
2026-05-07 11:51 35.41414 -116.15762 33021 ft 443 kts 47°
2026-05-07 11:52 35.45327 -116.09974 33034 ft 443 kts 47°
2026-05-07 11:52 35.49263 -116.04144 33033 ft 443 kts 47°
2026-05-07 11:53 35.52525 -115.99304 33053 ft 443 kts 47°
2026-05-07 11:53 35.57091 -115.92517 33051 ft 443 kts 47°
2026-05-07 11:54 35.60363 -115.87647 33077 ft 444 kts 48°
2026-05-07 11:54 35.64304 -115.81770 33072 ft 444 kts 48°
2026-05-07 11:55 35.68229 -115.75908 33085 ft 444 kts 48°
2026-05-07 11:55 35.72132 -115.70069 33086 ft 444 kts 48°
2026-05-07 11:56 35.76058 -115.64184 33089 ft 444 kts 48°
2026-05-07 11:56 35.79988 -115.58285 33101 ft 444 kts 48°
2026-05-07 11:57 35.83911 -115.52383 33099 ft 445 kts 48°
2026-05-07 11:57 35.87822 -115.46492 33098 ft 446 kts 48°
2026-05-07 11:58 35.91749 -115.40568 33099 ft 446 kts 48°
2026-05-07 11:58 35.95656 -115.34664 33108 ft 446 kts 48°
2026-05-07 11:59 35.99585 -115.28716 33112 ft 445 kts 49°
2026-05-07 11:59 36.03503 -115.22776 33091 ft 445 kts 49°
2026-05-07 12:00 36.07397 -115.16870 33090 ft 445 kts 47°
2026-05-07 12:00 36.11935 -115.11735 33084 ft 443 kts 39°
2026-05-07 12:01 36.16572 -115.06730 33038 ft 442 kts 39°
2026-05-07 12:01 36.21180 -115.01763 33040 ft 441 kts 39°
2026-05-07 12:02 36.25806 -114.96769 33035 ft 440 kts 39°
2026-05-07 12:02 36.30422 -114.91778 33028 ft 440 kts 39°
2026-05-07 12:03 36.35007 -114.86811 33021 ft 440 kts 40°
2026-05-07 12:03 36.39620 -114.81807 33003 ft 440 kts 40°
2026-05-07 12:04 36.44226 -114.76804 32994 ft 440 kts 40°
2026-05-07 12:04 36.48799 -114.71830 32978 ft 438 kts 40°
2026-05-07 12:05 36.53378 -114.66840 32984 ft 438 kts 40°
2026-05-07 12:05 36.57939 -114.61862 32982 ft 438 kts 40°
2026-05-07 12:06 36.62529 -114.56845 32983 ft 438 kts 40°
2026-05-07 12:06 36.67081 -114.51861 32981 ft 438 kts 40°
2026-05-07 12:07 36.71724 -114.46956 32977 ft 436 kts 32°
2026-05-07 12:07 36.76881 -114.42922 32983 ft 437 kts 31°
2026-05-07 12:08 36.82020 -114.38887 32993 ft 437 kts 31°
2026-05-07 12:08 36.87142 -114.34865 33003 ft 436 kts 31°
2026-05-07 12:09 36.92297 -114.30812 33010 ft 437 kts 31°
2026-05-07 12:09 36.97401 -114.26791 33015 ft 437 kts 31°
2026-05-07 12:10 37.02546 -114.22733 33019 ft 437 kts 31°
2026-05-07 12:10 37.07712 -114.18650 33032 ft 439 kts 31°
2026-05-07 12:11 37.12877 -114.14562 33038 ft 439 kts 31°
2026-05-07 12:11 37.18039 -114.10470 33048 ft 439 kts 31°
2026-05-07 12:12 37.23206 -114.06367 33064 ft 439 kts 31°
2026-05-07 12:12 37.28354 -114.02272 33061 ft 440 kts 31°
2026-05-07 12:13 37.33523 -113.98154 33077 ft 439 kts 31°
2026-05-07 12:13 37.38676 -113.94041 33077 ft 439 kts 31°
2026-05-07 12:14 37.43839 -113.89915 33079 ft 440 kts 31°
2026-05-07 12:14 37.49000 -113.85782 33099 ft 440 kts 31°
2026-05-07 12:15 37.54164 -113.81641 33105 ft 439 kts 31°
2026-05-07 12:15 37.59277 -113.77534 33100 ft 438 kts 31°
2026-05-07 12:16 37.64416 -113.73399 33130 ft 438 kts 31°
2026-05-07 12:16 37.69559 -113.69252 33119 ft 437 kts 31°
2026-05-07 12:17 37.74688 -113.65112 33122 ft 437 kts 31°
2026-05-07 12:17 37.79817 -113.60964 33134 ft 437 kts 31°
2026-05-07 12:18 37.84910 -113.56840 33136 ft 437 kts 30°
2026-05-07 12:18 37.90039 -113.52679 33138 ft 438 kts 30°
2026-05-07 12:19 37.94967 -113.48143 33160 ft 440 kts 40°
2026-05-07 12:19 37.99549 -113.42960 33147 ft 440 kts 39°
2026-05-07 12:20 38.04089 -113.37815 33147 ft 441 kts 39°
2026-05-07 12:20 38.08675 -113.32604 33149 ft 441 kts 39°
2026-05-07 12:21 38.13225 -113.27425 33147 ft 442 kts 39°
2026-05-07 12:21 38.17797 -113.22212 33163 ft 442 kts 39°
2026-05-07 12:22 38.22371 -113.16987 33175 ft 442 kts 39°
2026-05-07 12:22 38.26945 -113.11753 33189 ft 442 kts 39°
2026-05-07 12:23 38.31514 -113.06516 33205 ft 442 kts 39°
2026-05-07 12:23 38.36292 -113.01690 33188 ft 435 kts 23°
2026-05-07 12:24 38.41943 -112.99204 33197 ft 434 kts 15°
2026-05-07 12:24 38.47726 -112.96950 33211 ft 433 kts 15°
2026-05-07 12:25 38.53507 -112.94761 33203 ft 433 kts 14°
2026-05-07 12:25 38.59288 -112.92581 33194 ft 433 kts 14°
2026-05-07 12:26 38.65082 -112.90393 33174 ft 433 kts 14°
2026-05-07 12:26 38.70831 -112.88219 33143 ft 433 kts 14°
2026-05-07 12:27 38.76628 -112.86023 33145 ft 434 kts 14°
2026-05-07 12:27 38.82411 -112.83828 33137 ft 433 kts 14°
2026-05-07 12:28 38.88192 -112.81631 33145 ft 433 kts 14°
2026-05-07 12:28 38.93974 -112.79429 33144 ft 433 kts 14°
2026-05-07 12:29 38.99762 -112.77222 33157 ft 433 kts 14°
2026-05-07 12:29 39.05502 -112.75028 33150 ft 433 kts 14°
2026-05-07 12:30 39.11277 -112.72818 33152 ft 433 kts 13°
2026-05-07 12:30 39.17050 -112.70605 33151 ft 433 kts 13°
2026-05-07 12:31 39.22820 -112.68389 33153 ft 433 kts 13°
2026-05-07 12:31 39.28593 -112.66168 33151 ft 433 kts 13°
2026-05-07 12:32 39.34360 -112.63946 33151 ft 432 kts 13°
2026-05-07 12:32 39.40137 -112.61716 33193 ft 433 kts 13°
2026-05-07 12:33 39.48760 -112.58380 33187 ft 433 kts 13°
2026-05-07 12:33 39.51646 -112.57261 32990 ft 430 kts 13°
2026-05-07 12:33 39.54517 -112.56149 32267 ft 429 kts 13°
2026-05-07 12:34 39.57353 -112.55047 31731 ft 425 kts 13°
2026-05-07 12:34 39.60184 -112.53947 31090 ft 423 kts 13°
2026-05-07 12:34 39.63022 -112.52844 30249 ft 430 kts 13°
2026-05-07 12:34 39.65910 -112.51720 29181 ft 434 kts 13°
2026-05-07 12:35 39.68821 -112.50586 28496 ft 438 kts 13°
2026-05-07 12:35 39.71749 -112.49444 27872 ft 440 kts 13°
2026-05-07 12:35 39.74672 -112.48303 27235 ft 438 kts 13°
2026-05-07 12:35 39.77576 -112.47169 26602 ft 433 kts 13°
2026-05-07 12:36 39.80447 -112.46047 25967 ft 430 kts 13°
2026-05-07 12:36 39.83309 -112.44928 25349 ft 428 kts 12°
2026-05-07 12:36 39.86152 -112.43814 24726 ft 426 kts 12°
2026-05-07 12:36 39.88982 -112.42704 24102 ft 424 kts 12°
2026-05-07 12:37 39.91800 -112.41599 23452 ft 422 kts 12°
2026-05-07 12:37 39.94612 -112.40495 22784 ft 419 kts 12°
2026-05-07 12:37 39.97395 -112.39401 22169 ft 416 kts 12°
2026-05-07 12:37 40.00151 -112.38318 21589 ft 412 kts 12°
2026-05-07 12:38 40.02853 -112.37254 21013 ft 409 kts 12°
2026-05-07 12:38 40.05602 -112.36171 20421 ft 406 kts 12°
2026-05-07 12:38 40.08303 -112.35106 19853 ft 404 kts 12°
2026-05-07 12:38 40.10980 -112.34049 19287 ft 401 kts 12°
2026-05-07 12:39 40.13651 -112.32995 18725 ft 400 kts 12°
2026-05-07 12:39 40.16305 -112.31946 18136 ft 398 kts 12°
2026-05-07 12:39 40.18949 -112.30900 17540 ft 395 kts 12°
2026-05-07 12:39 40.21553 -112.29912 16910 ft 392 kts
2026-05-07 12:40 40.24220 -112.29289 16341 ft 387 kts
2026-05-07 12:40 40.26871 -112.28757 15819 ft 384 kts
2026-05-07 12:40 40.29498 -112.28243 15311 ft 380 kts
2026-05-07 12:40 40.32103 -112.27738 14816 ft 377 kts
2026-05-07 12:41 40.33819 -112.27411 14498 ft 375 kts
2026-05-07 12:41 40.36388 -112.26922 14048 ft 372 kts
2026-05-07 12:41 40.38947 -112.26457 13445 ft 370 kts
2026-05-07 12:41 40.41460 -112.25996 12971 ft 357 kts
2026-05-07 12:42 40.43859 -112.25542 12583 ft 341 kts
2026-05-07 12:42 40.46173 -112.25098 12215 ft 333 kts
2026-05-07 12:42 40.48519 -112.24654 11781 ft 347 kts
2026-05-07 12:42 40.50940 -112.24207 11369 ft 349 kts
2026-05-07 12:43 40.53306 -112.23771 11263 ft 337 kts
2026-05-07 12:43 40.55593 -112.23344 11112 ft 328 kts
2026-05-07 12:43 40.57795 -112.22877 10943 ft 322 kts 12°
2026-05-07 12:43 40.59844 -112.21726 10806 ft 317 kts 25°
2026-05-07 12:44 40.61748 -112.20335 10659 ft 310 kts 26°
2026-05-07 12:44 40.63609 -112.18960 10461 ft 303 kts 26°
2026-05-07 12:44 40.65419 -112.17618 10284 ft 293 kts 26°
2026-05-07 12:44 40.67157 -112.16322 10229 ft 281 kts 25°
2026-05-07 12:45 40.68841 -112.15091 10050 ft 272 kts 23°
2026-05-07 12:45 40.70520 -112.14042 9920 ft 266 kts 21°
2026-05-07 12:45 40.72236 -112.13017 9650 ft 275 kts 21°
2026-05-07 12:45 40.74004 -112.11981 9306 ft 280 kts 20°
2026-05-07 12:46 40.75791 -112.10946 8961 ft 282 kts 21°
2026-05-07 12:46 40.77595 -112.09903 8623 ft 282 kts 20°
2026-05-07 12:46 40.79371 -112.08978 8427 ft 274 kts 12°
2026-05-07 12:46 40.81231 -112.08494 8277 ft 264 kts
2026-05-07 12:47 40.82993 -112.08156 8153 ft 255 kts
2026-05-07 12:47 40.84724 -112.07819 7982 ft 249 kts
2026-05-07 12:47 40.86385 -112.07218 7724 ft 248 kts 21°
2026-05-07 12:47 40.87911 -112.06220 7547 ft 238 kts 26°
2026-05-07 12:48 40.89316 -112.05142 7299 ft 231 kts 38°
2026-05-07 12:48 40.90479 -112.03710 7039 ft 225 kts 45°
2026-05-07 12:48 40.91559 -112.02253 6785 ft 219 kts 48°
2026-05-07 12:48 40.92299 -112.00546 6476 ft 212 kts 80°
2026-05-07 12:49 40.92240 -111.98690 6277 ft 197 kts 112°
2026-05-07 12:49 40.91464 -111.97315 6152 ft 183 kts 146°
2026-05-07 12:49 40.90296 -111.96843 6024 ft 180 kts 181°
2026-05-07 12:49 40.89059 -111.97241 5922 ft 182 kts 193°
2026-05-07 12:50 40.87855 -111.97718 5699 ft 180 kts 193°
2026-05-07 12:50 40.86679 -111.98075 5454 ft 171 kts 192°
2026-05-07 12:50 40.85530 -111.98293 5262 ft 162 kts 175°
2026-05-07 12:50 40.84452 -111.98099 5101 ft 152 kts 170°
2026-05-07 12:51 40.83443 -111.97992 4838 ft 142 kts 173°
2026-05-07 12:51 40.82447 -111.97927 4687 ft 140 kts 170°
2026-05-07 12:51 40.81493 -111.97784 4405 ft 142 kts 171°
2026-05-07 12:51 40.80527 -111.97673 4253 ft 139 kts 171°
2026-05-07 12:52 40.79694 -111.97574 4232 ft 93 kts 175°
2026-05-07 12:52 40.79235 -111.97543 4233 ft 36 kts 191°
2026-05-07 12:52 40.79075 -111.97618 4234 ft 13 kts 205°
2026-05-07 12:52 40.79030 -111.97646 4234 ft 8 kts 205°
2026-05-07 12:53 40.78963 -111.97686 4234 ft 14 kts 196°
2026-05-07 12:53 40.78849 -111.97710 4234 ft 13 kts 201°
2026-05-07 12:53 40.78807 -111.97783 4233 ft 13 kts 204°
2026-05-07 12:53 40.78749 -111.97845 4233 ft 12 kts 268°
2026-05-07 12:54 40.78741 -111.97878 4233 ft 1 kts 193°
2026-05-07 12:54 40.78703 -111.97883 4233 ft 8 kts 184°
2026-05-07 12:54 40.78674 -111.97886 4233 ft 1 kts 184°
2026-05-07 12:54 40.78666 -111.97887 4233 ft 0 kts 184°